Home   Weather   Arlon   Past weeks
Flag for Belgium

Past Weather in Arlon, Luxembourg, Belgium — Yesterday and Last 2 Weeks

Now
32 °F

Clear.


Feels Like: 26 °F
Forecast: 39 / 31 °F
Wind: 7 mph from Northeast

Location: Luxembourg Airport

Current Time: Nov 20, 2019 at 8:03:58 pm

Latest Report: Nov 20, 2019 at 7:20 pm


Visibility: 10 mi

Pressure: 29.89 "Hg

Humidity: 87%

Dew Point: 28 °F

Location of ArlonLocation

Past Weather in Arlon — Graph

°F

Arlon Temperature Yesterday

Maximum temperature yesterday: 43 °F (at 2:20 pm)
Minimum temperature yesterday: 30 °F (at 9:20 pm)
Average temperature yesterday: 37 °F

High & Low Weather Summary for the Past Weeks

 TemperatureHumidityPressure
High48 °F (Nov 6, 1:50 pm)100% (Nov 5, 10:20 pm)30.07 "Hg (Nov 5, 10:20 pm)
Low28 °F (Nov 20, 2:20 am)70% (Nov 17, 3:50 pm)29.36 "Hg (Nov 15, 4:50 am)
Average38 °F94%29.71 "Hg
* Reported Nov 5 6:20 pm — Nov 20 6:50 pm, Arlon. Weather by CustomWeather, © 2019

Note: Actual official high and low records may vary slightly from our data, if they occured in-between our weather recording intervals... More about our weather records

Advertising

Arlon Weather History for the Previous 24 Hours

Scroll right to see more
 ConditionsComfort  
Time TempWeatherWind HumidityBarometerVisibility
6:50 pm
Wed, Nov 20
34 °FClear.9 mph87%29.89 "Hg10 mi
6:20 pm34 °FClear.8 mph87%29.89 "Hg10 mi
5:50 pm34 °FClear.10 mph93%29.89 "Hg10 mi
5:20 pm36 °FClear.10 mph87%29.89 "Hg10 mi
4:50 pm34 °FClear.8 mph93%29.92 "Hg10 mi
4:20 pm36 °FPassing clouds.9 mph87%29.92 "HgN/A
3:50 pm37 °FPassing clouds.10 mph81%29.92 "HgN/A
3:20 pm37 °FPartly sunny.8 mph87%29.92 "HgN/A
2:50 pm37 °FPassing clouds.9 mph87%29.92 "HgN/A
2:20 pm37 °FPassing clouds.5 mph87%29.95 "HgN/A
1:50 pm36 °FScattered clouds.6 mph93%29.95 "Hg4 mi
1:20 pm34 °FFog.5 mph100%29.95 "Hg3 mi
12:50 pm34 °FFog.6 mph100%29.95 "Hg2 mi
12:20 pm34 °FFog.6 mph100%29.98 "Hg1 mi
11:50 am32 °FFog.12 mph100%29.98 "Hg0 mi
11:20 am32 °FIce fog.13 mph100%29.98 "Hg0 mi
10:50 am32 °FIce fog.10 mph100%29.98 "Hg0 mi
10:20 am32 °FIce fog.9 mph100%30.01 "Hg0 mi
9:50 am30 °FIce fog.8 mph100%30.01 "Hg0 mi
9:20 am30 °FIce fog.8 mph100%30.01 "Hg0 mi
8:50 am30 °FIce fog.9 mph100%30.01 "Hg0 mi
8:20 am30 °FIce fog.9 mph100%30.01 "Hg0 mi
7:50 am30 °FIce fog.9 mph100%30.01 "Hg0 mi
7:20 am28 °FIce fog.8 mph100%30.01 "Hg0 mi
6:50 am28 °FIce fog.8 mph100%30.01 "Hg1 mi
6:20 am28 °FIce fog.9 mph100%30.01 "Hg0 mi
5:50 am28 °FIce fog.8 mph100%30.04 "Hg0 mi
5:20 am28 °FIce fog.8 mph100%30.04 "Hg0 mi
4:50 am28 °FIce fog.7 mph100%30.04 "Hg0 mi
4:20 am28 °FIce fog.8 mph100%30.04 "Hg0 mi
3:50 am28 °FIce fog.7 mph100%30.04 "Hg0 mi
3:20 am28 °FLight snow. Ice fog.8 mph100%30.04 "Hg0 mi
2:50 am28 °FIce fog.8 mph100%30.04 "Hg0 mi
2:20 am28 °FIce fog.7 mph100%30.04 "Hg0 mi
1:50 am30 °FIce fog.8 mph100%30.07 "Hg0 mi
1:20 am30 °FIce fog.8 mph100%30.07 "Hg0 mi
12:50 am30 °FPassing clouds.7 mph100%30.07 "Hg0 mi
12:20 am32 °FIce fog.6 mph100%30.07 "Hg1 mi
11:50 pm
Tue, Nov 19
32 °FIce fog.7 mph100%30.07 "Hg0 mi
11:20 pm32 °FIce fog.7 mph93%30.07 "Hg1 mi
10:50 pm30 °FIce fog.1 mph100%30.07 "Hg2 mi
10:20 pm32 °FIce fog.1 mph93%30.07 "Hg1 mi
9:50 pm32 °FIce fog.2 mph100%30.07 "Hg2 mi
9:20 pm30 °FClear.5 mph100%30.07 "Hg4 mi
8:50 pm32 °FClear.3 mph100%30.07 "Hg5 mi
8:20 pm32 °FClear.6 mph100%30.07 "Hg10 mi
Weather by CustomWeather, © 2019

See weather overview